Location: downtown San Diego
(32.7310°N, 117.1990°W)
Time: 20:41:11
(UTC-08:00)

Cosmos 2184 Rocket - Pass Details

Date: 19 May 2017
Orbit: 958 x 1003 km, 82.9° (Epoch: 20 November)

Event Time Altitude Azimuth Distance (km) Brightness Sun altitude
Rises 21:51:52 0° 354° (N) 3,728 7.8 -22.9°
Reaches altitude 10° 21:54:24 10° 355° (N) 2,772 7.0 -23.3°
Maximum altitude 22:00:47 87° 83° (E) 998 3.9 -24.2°
Enters shadow 22:02:43 48° 171° (S) 1,266 4.2 -24.5°
